Location: Montreal
(45.5000°N, 73.5833°W)
Time: 12:07:48
(UTC-04:00)

Envisat - Pass Details

Date: 15 October 2017
Orbit: 764 x 766 km, 98.2° (Epoch: 20 October)

Event Time Altitude Azimuth Distance (km) Brightness Sun altitude
Exits shadow 21:23:15 35° 278° (W) 1,213 4.4 -34.3°
Drops below altitude 10° 21:27:23 10° 330° (NNW) 2,311 6.0 -34.9°
Sets 21:29:53 0° 339° (NNW) 3,242 6.8 -35.3°
